Location: Newark
(51.0500°N, 12.4500°E)
Time: 15:58:29
(UTC+00:00)

A-11 Canister half - Visible Passes

Search period start: 19 February 2020 00:00
Search period end: 29 February 2020 00:00
Orbit: 1525 x 1684 km, 47.3° (Epoch: 18 February)

Date Brightness Start Highest point End Pass type
(mag) Time Alt. Az. Time Alt. Az. Time Alt. Az.
19 Feb 11.3 17:41:41 10° W 17:46:50 16° SW 17:52:02 10° SSW visible
20 Feb 11.3 17:19:51 10° W 17:25:19 17° SW 17:30:50 10° SSW visible
21 Feb 11.3 16:58:02 10° W 17:03:47 18° SW 17:09:35 10° SSW visible
